EW3845 Weather Reports


time (UTC)temp
C
wind
direction
speed
KPH
gust
KPH
rain 1hr
cm
rain 24hr
cm
rain mn
cm
humidity
%
barometer
mb
20260904123019 24 286 0.0 0.0 0.00 0.00 0.00 72 1010.9
20260904121519 24 360 0.0 0.0 0.00 0.00 0.00 72 1010.9
20260904120022 24 287 0.0 0.0 0.00 0.00 0.00 72 1010.9
20260904114517 24 294 0.0 0.0 0.00 0.00 0.00 72 1011.0
20260904113013 24 295 0.0 0.0 0.00 0.00 0.00 73 1011.1
20260904111517 23 306 0.0 0.0 0.00 0.00 0.00 74 1011.3
20260904110012 23 294 0.0 0.0 0.00 0.00 0.00 75 1011.5
20260904104511 23 293 0.0 0.0 0.00 0.00 0.00 74 1011.4
20260904103011 23 287 0.0 0.0 0.00 0.00 0.00 74 1011.3
20260904101517 23 290 0.0 0.0 0.00 0.00 0.00 74 1011.2
20260904100008 24 291 0.0 0.0 0.00 0.03 0.00 75 1011.3
20260904094503 23 290 0.0 0.0 0.00 0.03 0.00 78 1011.5
20260904093100 23 360 0.0 0.0 0.00 0.03 0.00 80 1011.7
20260904091557 22 295 0.0 0.0 0.00 0.03 0.00 80 1011.8
20260904090056 22 288 0.0 0.0 0.00 0.05 0.00 80 1012.0
20260904084600 22 360 0.0 0.0 0.00 0.05 0.00 81 1012.3
20260904083550 22 296 0.0 0.0 0.00 0.30 0.00 80 1012.5
20260904083144 22 360 0.0 0.0 0.00 0.05 0.00 80 1012.2
20260904083042 22 291 0.0 0.0 0.00 0.30 0.00 80 1012.4
20260904082555 22 288 0.0 0.0 0.00 0.30 0.00 80 1012.4
20260904082101 22 360 0.0 0.0 0.00 0.30 0.00 81 1012.4
20260904081553 22 360 0.0 0.0 0.00 0.30 0.00 81 1012.3
20260904081504 22 292 0.0 0.0 0.00 0.05 0.00 81 1012.1
20260904081101 22 360 0.0 0.0 0.00 0.30 0.00 82 1012.3
20260904080652 22 305 0.0 0.0 0.00 0.30 0.00 82 1012.3
20260904080012 22 360 0.0 0.0 0.00 0.05 0.00 82 1012.0
20260904074508 22 360 0.0 0.0 0.00 0.05 0.00 84 1012.0
20260904073006 21 291 0.0 0.0 0.00 0.05 0.00 85 1012.2
20260904071504 21 287 0.0 0.0 0.00 0.05 0.00 85 1012.4
20260904070008 21 360 0.0 0.0 0.00 0.05 0.00 86 1012.6
20260904064600 21 360 0.0 0.0 0.00 0.05 0.00 87 1012.8
20260904063114 21 360 0.0 0.0 0.00 0.05 0.00 86 1012.8
20260904061557 20 360 0.0 0.0 0.00 0.05 0.00 87 1012.9
20260904060056 20 297 0.0 0.0 0.00 0.05 0.00 87 1013.1
20260904054556 20 284 0.0 0.0 0.00 0.05 0.00 88 1013.1
20260904053105 20 287 0.0 0.0 0.00 0.05 0.00 88 1013.1
20260904051552 20 279 0.0 0.0 0.00 0.05 0.00 88 1013.3
20260904050053 20 360 0.0 0.0 0.00 0.05 0.00 88 1013.2
20260904044558 20 360 0.0 0.0 0.00 0.05 0.00 87 1013.3
20260904043056 20 289 0.0 0.0 0.00 0.05 0.00 87 1013.4
20260904041548 20 295 0.0 0.0 0.00 0.05 0.00 87 1013.6
20260904040047 20 286 0.0 0.0 0.00 0.05 0.00 87 1013.6
20260904034545 20 360 0.0 0.0 0.00 0.05 0.00 88 1013.8
20260904033045 20 288 0.0 0.0 0.00 0.05 0.00 88 1013.8
20260904031546 20 292 0.0 0.0 0.00 0.05 0.00 88 1014.1
20260904030055 20 286 0.0 0.0 0.00 0.05 0.00 88 1014.1
20260904024541 20 360 0.0 0.0 0.00 0.05 0.00 88 1014.3
20260904023039 20 360 0.0 0.0 0.00 0.05 0.00 89 1014.4
20260904021549 20 360 0.0 0.0 0.00 0.05 0.00 89 1015.0
20260904020036 20 360 0.0 0.0 0.00 0.05 0.00 89 1015.0
20260904014537 20 296 0.0 0.0 0.00 0.05 0.00 89 1015.1
20260904013034 20 287 0.0 0.0 0.00 0.05 0.00 89 1015.3
20260904011530 20 286 0.0 0.0 0.00 0.05 0.00 90 1015.3
20260904010030 20 289 0.0 0.0 0.00 0.05 0.00 90 1015.4
20260904004529 20 360 0.0 0.0 0.00 0.05 0.00 90 1015.4
20260904003028 20 360 0.0 0.0 0.00 0.05 0.00 90 1015.5
20260904001526 20 286 0.0 0.0 0.00 0.05 0.00 90 1015.7
20260904000025 20 360 0.0 0.0 0.00 0.05 0.00 89 1015.8
20260903234524 20 293 0.0 0.0 0.00 0.05 0.00 89 1016.1
20260903233033 20 360 0.0 0.0 0.00 0.05 0.00 89 1016.2
20260903231538 20 288 0.0 0.0 0.00 0.05 0.00 88 1016.3
20260903230021 20 360 0.0 0.0 0.00 0.05 0.00 88 1016.2
20260903224520 20 360 0.0 0.0 0.00 0.05 0.00 88 1016.4
20260903223018 20 360 0.0 0.0 0.00 0.05 0.00 89 1016.5
20260903221518 20 287 0.0 0.0 0.00 0.05 0.00 89 1016.5
20260903220016 20 287 0.0 0.0 0.00 0.05 0.05 90 1016.7
20260903214515 20 296 0.0 0.0 0.00 0.05 0.05 89 1016.9
20260903213014 20 360 0.0 0.0 0.00 0.05 0.05 89 1017.0
20260903211514 20 360 0.0 0.0 0.00 0.05 0.05 88 1017.0
20260903210014 21 286 0.0 0.0 0.00 0.05 0.05 87 1017.1
20260903204514 21 360 0.0 0.0 0.00 0.05 0.05 86 1017.2
20260903203013 21 360 0.0 0.0 0.00 0.05 0.05 85 1017.2
20260903201512 21 360 0.0 0.0 0.00 0.05 0.05 85 1017.1
20260903200012 21 360 0.0 0.0 0.00 0.05 0.05 84 1017.2
20260903194512 21 360 0.0 0.0 0.00 0.05 0.05 84 1017.2
20260903193013 21 289 0.0 0.0 0.00 0.05 0.05 84 1017.0
20260903191525 21 288 0.0 0.0 0.00 0.05 0.05 84 1016.8
20260903190047 21 288 0.0 0.0 0.00 0.30 0.05 83 1017.4
20260903185557 21 288 0.0 0.0 0.00 0.30 0.05 83 1017.4
20260903185044 21 290 0.0 0.0 0.00 0.30 0.05 83 1017.3
20260903184657 21 290 0.0 0.0 0.00 0.05 0.05 83 1017.3
20260903184556 21 290 0.0 0.0 0.00 0.30 0.05 83 1017.5
20260903184045 21 360 0.0 0.0 0.00 0.30 0.05 83 1017.4
20260903183558 21 360 0.0 0.0 0.00 0.30 0.05 83 1017.6
20260903183050 21 360 0.0 0.0 0.00 0.30 0.05 82 1017.7
20260903183004 21 360 0.0 0.0 0.00 0.05 0.05 82 1017.5
20260903182603 21 360 0.0 0.0 0.00 0.30 0.05 82 1017.5
20260903182050 21 360 0.0 0.0 0.00 0.30 0.05 82 1017.5
20260903181601 21 360 0.0 0.0 0.00 0.30 0.05 82 1017.3
20260903181050 22 288 0.0 0.0 0.00 0.30 0.05 82 1017.2
20260903180631 22 360 0.0 0.0 0.00 0.30 0.05 81 1017.3
20260903180043 21 360 0.0 0.0 0.00 0.05 0.05 81 1017.0
20260903174538 22 289 0.0 0.0 0.00 0.05 0.05 81 1017.2
20260903173037 22 360 0.0 0.0 0.00 0.05 0.05 80 1017.0
20260903171543 22 290 0.0 0.0 0.00 0.05 0.05 80 1017.0
20260903170043 22 360 0.0 0.0 0.00 0.05 0.05 79 1016.9
20260903164537 22 293 0.0 0.0 0.00 0.05 0.05 79 1016.7
20260903163040 22 306 0.0 0.0 0.00 0.05 0.05 78 1016.7
20260903161536 22 289 0.0 0.0 0.00 0.05 0.05 78 1016.8
20260903160035 22 290 0.0 0.0 0.00 0.05 0.05 78 1017.0
20260903154534 22 296 0.0 0.0 0.00 0.05 0.05 78 1017.1
20260903153032 22 360 0.0 0.0 0.00 0.05 0.05 79 1017.2
20260903151532 22 289 0.0 0.0 0.00 0.05 0.05 79 1017.2
20260903150043 22 360 0.0 0.0 0.00 0.05 0.05 79 1017.2
20260903144530 22 360 0.0 0.0 0.00 0.05 0.05 80 1017.2
20260903143036 22 298 0.0 0.0 0.00 0.05 0.05 80 1017.2
20260903141526 22 360 0.0 0.0 0.00 0.05 0.05 81 1017.2
20260903140025 21 360 0.0 0.0 0.00 0.05 0.05 81 1017.3
20260903134525 21 289 0.0 0.0 0.00 0.05 0.05 82 1017.5
20260903133022 21 286 0.0 0.0 0.00 0.05 0.05 82 1017.5
20260903131522 21 292 0.0 0.0 0.00 0.05 0.05 82 1017.4
20260903130024 21 316 0.0 0.0 0.00 0.05 0.05 81 1017.3
20260903124521 21 290 0.0 0.0 0.00 0.05 0.05 82 1017.3